CAPE
0 0 2 5 0 0 98 70 59 50 20 0 39 56 61 27 20 6 73 78 85 129 130 200 187 248 250 280 321 469 341 325 675 547 461 410 503 621 488 383 444 553 159 858
0 0 0 14 1 2 34 68 54 29 0 0 0 12 43 27 19 6 30 65 84 122 100 227 187 256 270 293 330 513 282 175 278 305 530 328 407 533 141 418 685 277 239 781
0 0 0 18 14 16 13 17 73 96 35 40 73 28 26 7 37 92 31 66 61 86 113 193 207 236 274 332 330 424 234 154 316 279 483 470 660 570 365 499 615 563 605 582
0 0 0 2 32 15 12 130 85 179 119 68 100 0 54 23 35 20 34 37 62 46 75 144 225 232 232 258 256 293 144 138 309 290 565 584 574 604 559 484 704 579 704 756
0 0 0 0 28 37 195 200 207 160 66 33 111 38 0 11 27 13 1 27 53 47 65 112 184 223 199 146 195 148 75 116 323 279 346 537 445 581 419 451 532 556 774 703
0 0 0 0 0 176 206 106 41 31 7 0 0 47 0 2 0 18 16 33 41 41 68 101 150 208 217 148 174 185 96 66 277 393 292 299 480 394 335 285 441 454 397 630
0 0 0 0 184 212 119 7 13 8 10 9 0 0 0 1 4 13 28 54 36 41 53 70 108 149 212 179 171 217 131 136 158 352 308 337 265 248 237 311 297 334 348 352
0 0 0 166 235 312 154 52 9 18 4 0 0 0 1 1 0 0 16 48 81 79 38 54 70 90 151 150 185 201 184 163 114 213 371 366 268 219 181 255 420 302 323 304
0 0 4 161 349 383 208 111 30 10 13 20 1 0 20 121 117 120 5 60 60 79 52 62 77 91 144 230 204 200 192 177 122 185 248 393 434 367 325 385 410 369 381 457
0 9 10 184 485 222 284 79 29 5 12 9 10 20 0 47 185 124 87 84 54 59 92 56 77 118 148 224 259 220 213 192 166 148 244 312 390 432 397 437 346 413 391 327
6 9 26 366 437 192 105 19 0 0 0 0 32 12 66 161 187 214 106 102 103 91 114 138 118 138 193 204 304 300 255 229 204 167 231 354 427 438 489 559 509 505 532 565
25 28 40 43 21 174 112 43 0 10 5 0 6 0 271 212 195 358 312 219 144 91 89 138 142 155 175 223 299 396 432 282 252 216 256 378 527 581 446 548 604 572 554 528
73 67 100 72 46 6 2 0 0 0 0 0 1 1 285 284 207 115 126 123 38 100 101 102 129 161 187 237 338 585 573 439 320 310 325 368 466 641 640 604 739 593 581 669
101 86 58 96 28 15 55 301 1 0 12 0 0 116 248 259 201 169 324 423 352 127 76 118 83 121 171 217 226 601 704 587 495 482 499 467 482 532 651 663 591 522 550 608
26 65 111 254 586 634 620 546 344 24 9 0 90 237 165 200 256 427 722 591 628 297 304 272 237 123 100 144 178 335 655 710 639 582 587 470 601 808 935 945 828 766 585 688
0 3 32 147 204 63 309 559 756 677 494 434 410 386 212 282 680 808 603 849 580 769 376 449 361 185 109 75 100 137 251 396 435 435 436 268 288 439 578 887 861 897 745 629
0 0 0 28 29 24 26 314 420 484 755 535 421 343 372 756 966 641 741 265 414 524 491 497 335 291 247 177 140 134 145 160 170 245 193 108 133 72 108 179 436 663 662 563
10 0 2 9 0 7 1 31 574 623 307 196 218 444 650 495 550 684 604 767 304 291 218 410 292 278 239 199 148 133 99 101 83 107 99 94 105 79 55 116 142 168 242 207
0 2 0 0 0 3 60 32 255 72 316 490 826 1007 908 935 448 596 548 482 573 264 212 543 204 164 105 99 99 85 85 95 83 84 66 69 24 53 36 94 131 158 132 88
0 0 0 0 4 18 27 24 9 73 92 542 728 805 765 314 23 288 446 343 366 406 390 368 314 65 5 2 106 53 47 45 37 47 56 19 42 16 19 46 24 74 68 90
0 0 0 0 0 0 0 4 4 50 20 580 753 878 487 94 34 96 218 287 203 275 239 208 260 384 357 14 23 36 59 61 114 82 41 43 56 94 58 28 32 65 99 54
0 0 0 0 0 0 0 0 4 0 59 526 440 229 256 147 128 158 147 35 29 90 184 223 187 170 465 570 263 252 191 138 125 132 127 155 113 125 93 92 71 70 61 91
0 0 0 0 0 0 0 0 28 286 449 501 449 537 281 145 169 169 44 24 38 49 128 164 176 183 301 227 217 153 219 101 94 111 119 124 119 67 65 48 31 11 22 33
0 0 0 0 0 0 0 0 41 162 272 436 503 713 400 253 292 94 39 54 46 24 158 115 109 157 71 272 280 73 288 61 131 121 86 43 27 23 8 20 10 4 5 10
0 0 0 0 0 0 0 0 0 0 112 303 532 760 504 399 213 100 65 64 86 61 73 67 40 26 17 22 7 36 92 25 15 16 16 39 72 29 7 3 10 2 1 0
0 0 0 0 0 0 0 0 0 0 392 581 807 727 555 391 217 114 107 74 67 42 14 1 0 0 0 0 0 0 1 0 1 3 4 23 18 21 14 5 20 16 4 7
CIN
0 0 -4 -6 0 0 -53 -24 -58 -3 -55 0 0 0 0 0 -37 -32 -43 -56 -86 -84 -62 -66 -75 -106 -128 -108 -91 -40 -32 -26 -26 -28 -57 -29 -22 -38 -22 -25 -96 -30 -38 -55
0 0 0 -3 -2 -1 -67 -43 -72 -66 0 0 0 0 0 0 -23 -45 -21 -37 -45 -50 -105 -89 -106 -107 -82 -93 -77 -26 -28 -32 -33 -24 -39 -31 -91 -44 -40 -12 -42 -63 -41 -30
0 0 0 -2 -1 -2 -12 -17 -88 -36 -60 -9 0 0 0 0 -11 -40 -17 -10 -54 -66 -76 -103 -107 -105 -81 -65 -68 -48 -42 -64 -47 -26 -75 -107 -70 -55 -110 -85 -63 -19 -11 -21
0 0 0 -2 -2 -2 -32 -86 -41 -60 -55 -14 -24 0 0 -12 -8 -53 -36 -15 -21 -54 -87 -118 -89 -91 -90 -70 -68 -51 -56 -82 -47 -90 -40 -59 -57 -32 -36 -51 -28 -37 -35 -35
0 0 0 0 -3 -4 -68 -94 -39 -54 -41 -25 -23 -33 0 -28 -19 -5 -5 -25 -75 -44 -88 -129 -109 -93 -72 -89 -88 -76 -26 -64 -71 -73 -49 -27 -31 -15 -17 -32 -26 -23 -25 -30
0 0 0 0 0 -70 -69 -63 -21 -46 -26 0 0 -47 0 -165 0 -40 -5 -72 -58 -83 -72 -86 -97 -84 -56 -78 -79 -71 -36 -109 -73 -46 -48 -35 -20 -17 -9 -27 -27 -23 -20 -38
0 0 0 0 -91 -61 -68 -61 -11 -2 -40 -27 0 0 0 -1 -1 -36 -24 -131 -135 -86 -56 -82 -111 -81 -76 -64 -109 -54 -72 -94 -98 -50 -35 -27 -20 -20 -23 -32 -21 -20 -25 -37
0 0 0 -110 -108 -100 -146 -75 -1 -24 -2 -2 -6 0 -4 -4 -1 0 -50 -100 -185 -237 -80 -95 -141 -203 -226 -155 -194 -83 -39 -81 -110 -71 -60 -34 -39 -35 -53 -55 -37 -118 -39 -26
0 -2 -30 -92 -112 -113 -83 -53 -10 -32 -9 -3 -10 -1 -118 -131 -127 -113 -74 -183 -206 -208 -249 -91 -201 -215 -210 -178 -202 -114 -69 -68 -45 -84 -81 -53 -42 -37 -52 -45 -36 -33 -27 -16
0 -22 -29 -61 -65 -46 -42 -41 -25 -16 -3 -1 -1 -52 0 -76 -159 -111 -162 -211 -168 -161 -192 -197 -227 -216 -202 -168 -206 -138 -105 -79 -49 -82 -145 -71 -53 -41 -55 -52 -65 -48 -33 -68
-24 -18 -23 -39 -25 -33 -34 -25 -1 0 0 0 -30 -2 -169 -129 -193 -113 -102 -220 -198 -144 -165 -170 -170 -163 -168 -162 -164 -211 -145 -102 -83 -71 -186 -98 -53 -38 -52 -49 -36 -55 -77 -46
-15 -31 -17 -23 -8 -23 -22 -18 0 -1 -13 -1 -4 -1 -87 -126 -155 -106 -83 -53 -61 -156 -168 -154 -147 -129 -148 -167 -181 -172 -168 -136 -106 -107 -87 -164 -74 -36 -110 -50 -46 -47 -57 -44
-25 -31 -16 -44 -37 -27 -11 0 0 0 0 0 -1 -1 -58 -79 -61 -203 -256 -298 -195 -160 -55 -116 -105 -114 -123 -159 -173 -167 -158 -183 -158 -120 -214 -186 -114 -60 -47 -55 -31 -51 -115 -40
-27 -26 -25 -11 -50 -70 -87 -155 -76 0 -4 0 0 -186 -73 -43 -113 -137 -149 -181 -188 -70 -215 -79 -100 -110 -49 -48 -132 -159 -148 -148 -148 -189 -164 -150 -135 -78 -49 -36 -36 -56 -31 -109
-37 -28 -59 -53 -82 -62 -79 -128 -223 -198 -1 0 -165 -105 -69 -183 -201 -154 -105 -137 -118 -121 -76 -98 -92 -74 -167 -101 -56 -135 -105 -99 -89 -94 -105 -85 -67 -44 -21 -17 -37 -32 -47 -25
-1 -45 -21 -126 -67 -81 -90 -83 -97 -127 -190 -231 -225 -204 -46 -214 -103 -89 -142 -106 -130 -84 -158 -77 -78 -94 -107 -188 -146 -169 -143 -96 -75 -70 -43 -54 -37 -27 -19 -14 -13 -17 -19 -22
0 0 0 -63 -86 -41 -11 -74 -127 -64 -82 -86 -71 -64 -174 -95 -65 -123 -93 -178 -156 -117 -107 -88 -109 -73 -52 -53 -130 -124 -102 -127 -92 -66 -48 -61 -36 -37 -73 -80 -51 -31 -25 -40
-2 0 -5 -3 0 -43 -140 -47 -68 -173 -143 -51 -40 -173 -107 -161 -144 -113 -101 -85 -138 -148 -191 -97 -103 -114 -111 -76 -93 -65 -72 -69 -52 -37 -11 -10 -16 -14 -51 -72 -79 -68 -17 -39
0 -14 -4 0 -2 -66 -39 -50 -81 -128 -86 -183 -87 -57 -59 -65 -136 -120 -77 -126 -84 -124 -195 -50 -149 -134 -164 -119 -78 -83 -109 -101 -32 -4 -5 0 0 0 -15 -75 -80 -80 -101 -109
0 0 0 0 -8 -23 -23 -27 -20 -136 -87 -89 -153 -138 -121 -227 -61 -175 -140 -153 -139 -106 -93 -98 -96 -171 -158 0 -48 -52 -67 -89 -75 -27 0 -1 0 -1 0 -9 -63 -4 -58 -99
0 0 0 0 0 0 -6 -11 -10 -75 -58 -66 -86 -98 -107 -113 -93 -271 -198 -167 -197 -137 -112 -127 -109 -52 -34 -22 -73 -81 -55 -42 -3 -11 -11 -61 -16 -1 -7 -23 -49 -94 -161 -90
0 0 0 0 0 0 0 0 -25 0 -85 -35 -58 -75 -72 -207 -295 -257 -192 -302 -358 -246 -172 -118 -105 -83 -7 0 -4 -3 -2 -1 -5 -2 -1 0 -6 0 0 -1 -30 -65 -72 -64
0 0 0 0 0 0 0 0 -77 -50 -42 -26 -30 -99 -50 -272 -157 -154 -249 -246 -254 -230 -154 -87 -75 -52 -11 -8 -10 -9 -5 -24 -13 -7 -5 -3 -4 -21 -35 -42 -19 -18 -37 -5
0 0 0 0 0 0 0 0 -68 -18 -16 -29 -43 -71 -37 -79 -118 -144 -209 -201 -184 -199 -94 -82 -52 -23 -31 0 -1 -16 -1 -13 -20 -4 -12 -28 -67 -64 -31 -18 -1 0 0 -27
0 0 0 0 0 0 0 0 0 0 -50 -65 -207 -60 -50 -73 -109 -125 -168 -148 -103 -115 -103 -87 -89 -94 -83 -59 -3 -5 -5 -22 -16 -36 -47 -39 -46 -43 0 -29 -11 -4 0 0
0 0 0 0 0 0 0 0 0 0 -98 -196 -90 -74 -70 -76 -110 -154 -129 -118 -83 -63 -83 -50 0 0 -9 -22 0 0 0 0 -1 0 0 -5 -5 -15 -22 -18 -22 -14 -5 -2
Wind_Speed
nan nan nan nan nan nan nan nan nan nan nan nan nan nan nan nan nan nan nan nan nan 10 6 6 9 8 8 7 7 10 10 12 10 10 9 10 9 10 11 7 9 12 10 8
nan nan nan nan nan nan nan nan nan nan nan nan nan nan nan nan nan nan nan nan nan 5 5 7 8 7 7 7 7 9 9 8 12 13 9 6 8 9 8 7 7 9 10 9
nan nan nan nan nan nan nan nan nan nan nan nan nan nan nan nan nan nan nan nan nan nan 3 7 11 9 6 6 6 7 7 8 11 11 13 13 12 12 11 9 7 8 9 10
nan nan nan nan nan nan nan 21 nan 23 26 nan 21 nan nan nan nan nan nan nan nan nan nan 4 8 12 8 7 7 6 6 8 10 9 13 10 8 8 7 9 11 11 8 11
nan nan nan nan nan nan 28 39 19 26 nan nan 9 nan nan nan nan nan nan nan nan nan nan 3 7 10 11 9 6 8 nan 8 9 9 10 12 11 11 10 10 10 13 10 9
nan nan nan nan nan 27 27 38 nan nan nan nan nan nan nan nan nan nan nan nan nan nan nan 6 7 10 13 15 11 9 nan nan 7 10 10 10 9 9 11 10 10 12 12 13
nan nan nan nan 44 38 29 nan nan nan nan nan nan nan nan nan nan nan nan nan nan nan nan nan 9 10 11 10 12 10 8 8 8 9 11 10 9 9 8 10 11 9 8 10
nan nan nan 26 29 22 27 nan nan nan nan nan nan nan nan nan nan nan nan nan nan nan nan nan nan nan 9 8 8 9 8 10 8 8 7 10 12 13 13 14 14 12 11 10
nan nan nan 20 27 30 18 22 nan nan nan nan nan nan nan 13 7 4 nan nan nan nan nan nan nan nan 9 8 8 5 9 9 9 7 10 10 12 13 12 11 14 13 11 10
nan nan nan 29 27 21 19 nan nan nan nan nan nan nan nan nan 11 5 nan nan nan nan nan nan nan 10 11 9 8 8 9 9 10 10 12 11 10 10 12 12 10 10 12 12
nan nan nan 26 22 18 22 nan nan nan nan nan nan nan nan 21 15 4 4 4 4 nan 7 13 20 19 15 19 11 10 10 11 13 14 14 15 15 14 14 13 11 10 10 10
nan nan nan nan nan 20 18 nan nan nan nan nan nan nan 17 20 13 8 3 4 7 nan nan 6 5 12 17 17 21 19 17 13 14 14 16 16 18 18 18 15 13 14 13 13
nan nan 29 nan nan nan nan nan nan nan nan nan nan nan 13 12 17 14 15 16 nan 10 10 11 7 8 10 13 18 18 15 22 21 20 19 20 21 21 20 19 17 18 17 15
28 nan nan nan nan nan nan 24 nan nan nan nan nan 18 18 19 20 16 12 9 9 9 nan 13 nan 14 14 15 13 20 17 17 22 24 25 25 22 22 23 23 23 23 21 19
nan nan 32 28 26 25 26 27 31 nan nan nan nan 25 18 16 19 21 22 20 19 18 14 15 22 29 24 25 25 26 24 26 31 30 33 35 33 32 29 26 27 27 25 23
nan nan nan 42 40 nan 34 32 26 27 29 30 32 30 22 23 28 28 23 27 30 21 21 22 22 27 27 nan 33 30 29 28 26 24 24 32 31 26 25 33 31 31 28 31
nan nan nan nan nan nan nan 38 28 30 30 25 29 30 29 37 37 35 33 31 30 30 25 26 22 22 30 23 21 39 36 32 28 29 31 35 25 nan 34 33 39 41 39 40
nan nan nan nan nan nan nan nan 24 35 30 27 27 24 27 32 32 37 41 40 38 36 33 33 36 33 31 29 34 31 nan 43 nan 38 nan nan 34 nan nan 35 33 36 44 42
nan nan nan nan nan nan nan nan 16 nan 25 24 22 24 29 30 32 34 34 36 34 35 33 34 34 36 35 nan nan nan nan nan nan nan nan nan nan nan nan nan 32 38 42 nan
nan nan nan nan nan nan nan nan nan nan nan 22 27 27 31 29 nan 34 37 35 30 31 28 28 28 nan nan nan 28 nan nan nan nan nan nan nan nan nan nan nan nan nan nan nan
nan nan nan nan nan nan nan nan nan nan nan 24 28 31 34 nan nan nan 35 36 36 32 35 35 34 33 30 nan nan nan nan nan 41 nan nan nan nan nan nan nan nan nan nan nan
nan nan nan nan nan nan nan nan nan nan nan 29 35 35 36 34 40 38 31 nan nan nan 35 37 33 30 25 26 29 28 27 25 27 38 32 24 21 22 nan nan nan nan nan nan
nan nan nan nan nan nan nan nan nan 23 26 29 32 36 40 43 43 39 nan nan nan nan 37 35 33 33 30 28 28 29 25 26 nan 27 28 30 31 nan nan nan nan nan nan nan
nan nan nan nan nan nan nan nan nan 19 25 33 35 38 38 39 41 nan nan nan nan nan 34 33 37 37 nan 30 29 nan 27 nan 28 27 nan nan nan nan nan nan nan nan nan nan
nan nan nan nan nan nan nan nan nan nan 18 27 36 39 40 41 35 34 nan nan nan nan nan nan nan nan nan nan nan nan nan nan nan nan nan nan nan nan nan nan nan nan nan nan
nan nan nan nan nan nan nan nan nan nan 20 29 29 32 36 35 30 24 27 nan nan nan nan nan nan nan nan nan nan nan nan nan nan nan nan nan nan nan nan nan nan nan nan nan
Wind_Direction
nan nan nan nan nan nan nan nan nan nan nan nan nan nan nan nan nan nan nan nan nan 74 99 117 105 128 128 123 123 122 147 143 155 161 164 152 129 127 134 142 150 149 157 158
nan nan nan nan nan nan nan nan nan nan nan nan nan nan nan nan nan nan nan nan nan 140 185 139 114 121 125 113 118 114 112 147 162 176 185 172 141 143 158 159 157 147 158 139
nan nan nan nan nan nan nan nan nan nan nan nan nan nan nan nan nan nan nan nan nan nan 197 148 117 111 142 141 107 111 123 131 169 185 199 201 180 183 185 161 156 146 138 137
nan nan nan nan nan nan nan 222 nan 296 297 nan 303 nan nan nan nan nan nan nan nan nan nan 162 114 127 119 134 161 146 160 149 143 168 186 211 200 193 169 160 166 164 154 139
nan nan nan nan nan nan 227 237 231 256 nan nan 323 nan nan nan nan nan nan nan nan nan nan 133 96 103 143 153 166 157 nan 167 157 166 167 196 194 186 189 185 177 176 171 151
nan nan nan nan nan 236 261 233 nan nan nan nan nan nan nan nan nan nan nan nan nan nan nan 176 161 162 171 172 172 183 nan nan 181 173 192 204 203 205 195 192 183 183 175 166
nan nan nan nan 235 221 238 nan nan nan nan nan nan nan nan nan nan nan nan nan nan nan nan nan 202 190 186 178 167 174 185 176 184 191 186 188 196 204 175 171 182 186 179 178
nan nan nan 232 248 262 248 nan nan nan nan nan nan nan nan nan nan nan nan nan nan nan nan nan nan nan 197 181 172 167 187 183 213 201 192 188 188 196 190 176 174 168 169 164
nan nan nan 228 243 252 267 252 nan nan nan nan nan nan nan 247 281 143 nan nan nan nan nan nan nan nan 241 209 178 191 195 193 204 226 221 205 204 201 197 183 178 177 162 159
nan nan nan 222 238 212 255 nan nan nan nan nan nan nan nan nan 119 116 nan nan nan nan nan nan nan 239 235 245 238 199 213 208 214 222 231 223 223 215 209 205 186 186 179 176
nan nan nan 219 216 244 229 nan nan nan nan nan nan nan nan 142 149 174 254 246 313 nan 180 225 231 230 236 238 225 243 235 233 221 219 226 225 225 227 230 219 203 197 211 206
nan nan nan nan nan 207 229 nan nan nan nan nan nan nan 156 164 165 194 267 167 207 nan nan 344 242 245 249 262 250 243 245 237 238 233 230 234 233 229 230 230 225 224 217 223
nan nan 211 nan nan nan nan nan nan nan nan nan nan nan 215 209 185 187 196 200 nan 260 247 260 283 309 262 247 250 224 241 237 241 242 240 237 239 237 231 234 232 239 234 232
229 nan nan nan nan nan nan 217 nan nan nan nan nan 255 224 227 218 195 196 202 219 273 nan 236 nan 232 238 252 232 232 236 236 232 249 246 241 239 241 240 242 236 239 240 239
nan nan 238 217 226 234 236 234 236 nan nan nan nan 237 225 240 249 243 229 234 253 257 253 254 243 231 226 244 250 240 227 224 236 237 247 241 240 236 237 239 245 248 243 239
nan nan nan 227 237 nan 223 229 247 240 242 239 242 235 232 239 245 243 236 233 245 261 264 261 261 258 243 nan 233 242 247 244 243 240 242 254 252 250 256 234 239 246 245 241
nan nan nan nan nan nan nan 228 217 242 241 242 229 240 244 251 248 245 248 244 246 237 234 239 250 278 288 293 291 246 246 244 246 253 248 251 251 nan 249 253 253 238 244 249
nan nan nan nan nan nan nan nan 211 243 241 243 243 244 257 260 258 253 251 254 257 255 246 245 250 271 280 285 299 293 nan 251 nan 239 nan nan 251 nan nan 262 266 249 240 240
nan nan nan nan nan nan nan nan 250 nan 219 250 261 267 266 262 255 255 257 261 262 259 255 255 256 261 267 nan nan nan nan nan nan nan nan nan nan nan nan nan 266 257 249 nan
nan nan nan nan nan nan nan nan nan nan nan 256 266 270 273 262 nan 259 258 262 255 260 265 261 258 nan nan nan 267 nan nan nan nan nan nan nan nan nan nan nan nan nan nan nan
nan nan nan nan nan nan nan nan nan nan nan 248 251 257 261 nan nan nan 258 256 258 260 260 264 269 276 276 nan nan nan nan nan 252 nan nan nan nan nan nan nan nan nan nan nan
nan nan nan nan nan nan nan nan nan nan nan 242 243 245 253 259 268 247 242 nan nan nan 258 264 273 275 274 271 275 276 272 279 284 283 287 280 265 278 nan nan nan nan nan nan
nan nan nan nan nan nan nan nan nan 268 267 266 260 252 256 260 261 267 nan nan nan nan 260 259 263 273 266 268 272 277 282 285 nan 269 252 259 251 nan nan nan nan nan nan nan
nan nan nan nan nan nan nan nan nan 286 268 253 253 261 259 257 261 nan nan nan nan nan 267 269 271 272 nan 273 275 nan 283 nan 271 257 nan nan nan nan nan nan nan nan nan nan
nan nan nan nan nan nan nan nan nan nan 284 270 262 254 256 262 261 263 nan nan nan nan nan nan nan nan nan nan nan nan nan nan nan nan nan nan nan nan nan nan nan nan nan nan
nan nan nan nan nan nan nan nan nan nan 287 270 263 256 249 250 259 268 272 nan nan nan nan nan nan nan nan nan nan nan nan nan nan nan nan nan nan nan nan nan nan nan nan nan